This is the latest recevied weather packets stored in our database for station/object EA3HRE-13. If no packets are shown the sender has not sent any weather packets the latest 10 day(s).
| Time | Temp. | Humidity | Pressure | Rain* | Wind** | Luminosity | Snow |
|---|---|---|---|---|---|---|---|
| 1787955664 | 21.67° C | 100% | 1006.9 hPa | 0 mm | - | - | - |
| 1787955064 | 21.67° C | 100% | 1006.9 hPa | 0 mm | - | - | - |
| 1787954464 | 21.67° C | 100% | 1006.8 hPa | 0 mm | - | - | - |
| 1787953864 | 22.78° C | 100% | 1006.7 hPa | 0 mm | - | - | - |
| 1787953264 | 22.78° C | 100% | 1006.5 hPa | 0 mm | - | - | - |
| 1787952664 | 23.33° C | 100% | 1006.4 hPa | 0 mm | - | - | - |
| 1787952064 | 23.33° C | 100% | 1006.2 hPa | 0 mm | - | - | - |
| 1787951463 | 23.33° C | 100% | 1006.1 hPa | 0 mm | - | - | - |
| 1787950833 | 23.89° C | 100% | 1006 hPa | 0 mm | - | - | - |
| 1787950233 | 23.89° C | 100% | 1005.9 hPa | 0 mm | - | - | - |
| 1787949633 | 24.44° C | 100% | 1005.9 hPa | 0 mm | - | - | - |
| 1787949003 | 24.44° C | 100% | 1006 hPa | 0 mm | - | - | - |
| 1787948403 | 24.44° C | 100% | 1005.9 hPa | 0 mm | - | - | - |
| 1787947773 | 25° C | 100% | 1006 hPa | 0 mm | - | - | - |
| 1787947173 | 25° C | 100% | 1005.7 hPa | 0 mm | - | - | - |
| 1787946543 | 25° C | 100% | 1005.8 hPa | 0 mm | - | - | - |
| 1787945943 | 25° C | 100% | 1005.7 hPa | 0 mm | - | - | - |
| 1787945313 | 25.56° C | 100% | 1010.2 hPa | 0 mm | - | - | - |
| 1787944713 | 25.56° C | 100% | 1005 hPa | 0 mm | - | - | - |
| 1787944112 | 26.11° C | 100% | 1005.2 hPa | 0 mm | - | - | - |
| 1787943482 | 26.11° C | 100% | 1005.2 hPa | 0 mm | - | - | - |
| 1787942852 | 26.67° C | 100% | 1005.1 hPa | 0 mm | - | - | - |
| 1787942252 | 27.22° C | 100% | 1004.9 hPa | 0 mm | - | - | - |
| 1787941652 | 27.22° C | 100% | 1004.9 hPa | 0 mm | - | - | - |
| 1787941052 | 27.78° C | 100% | 1005 hPa | 0 mm | - | - | - |
* Rain latest hour (hover to see other rain measurements)
** Current wind speed in m/s (hover to see current wind gust speed)